TimeCST,TemperatureF,Dew PointF,Humidity,Sea Level PressureIn,VisibilityMPH,Wind Direction,Wind SpeedMPH,Gust SpeedMPH,PrecipitationIn,Events,Conditions,WindDirDegrees,DateUTC
12:15 AM,10.4,5.4,80,29.87,10.0,NW,5.8,-,N/A,,Scattered Clouds,320,2013-12-20 06:15:00
12:35 AM,10.0,4.6,79,29.87,10.0,NW,6.9,-,N/A,,Clear,320,2013-12-20 06:35:00
12:55 AM,10.4,5.2,79,29.86,10.0,North,8.1,-,N/A,,Clear,350,2013-12-20 06:55:00
1:15 AM,10.4,5.4,80,29.84,10.0,NNW,10.4,-,N/A,,Clear,340,2013-12-20 07:15:00
1:35 AM,10.2,5.0,79,29.84,10.0,North,9.2,-,N/A,,Clear,350,2013-12-20 07:35:00
1:55 AM,10.0,4.6,79,29.82,10.0,North,8.1,-,N/A,,Clear,350,2013-12-20 07:55:00
2:15 AM,10.2,4.6,78,29.83,10.0,North,8.1,-,N/A,,Clear,350,2013-12-20 08:15:00
2:35 AM,10.4,5.4,80,29.83,10.0,North,6.9,-,N/A,,Clear,350,2013-12-20 08:35:00
2:55 AM,10.4,5.5,81,29.83,10.0,North,3.5,-,N/A,,Clear,350,2013-12-20 08:55:00
3:15 AM,10.4,5.9,82,29.83,10.0,NNW,4.6,-,N/A,,Clear,340,2013-12-20 09:15:00
3:35 AM,10.4,5.5,81,29.83,10.0,NNW,4.6,-,N/A,,Clear,330,2013-12-20 09:35:00
3:55 AM,10.8,5.5,79,29.83,10.0,NW,5.8,-,N/A,,Clear,310,2013-12-20 09:55:00
4:15 AM,10.4,5.0,79,29.81,10.0,Calm,Calm,-,N/A,,Clear,0,2013-12-20 10:15:00
4:35 AM,10.8,5.4,79,29.81,10.0,NW,3.5,-,N/A,,Clear,320,2013-12-20 10:35:00
4:55 AM,10.8,5.5,79,29.81,10.0,WNW,4.6,-,N/A,,Clear,300,2013-12-20 10:55:00
5:15 AM,10.9,5.7,79,29.80,10.0,Calm,Calm,-,N/A,,Scattered Clouds,0,2013-12-20 11:15:00
5:35 AM,11.1,5.9,80,29.81,10.0,WSW,4.6,-,N/A,,Scattered Clouds,250,2013-12-20 11:35:00
5:55 AM,11.7,6.4,80,29.80,10.0,West,4.6,-,N/A,,Mostly Cloudy,280,2013-12-20 11:55:00
6:15 AM,12.6,7.3,80,29.81,10.0,West,6.9,-,N/A,,Overcast,270,2013-12-20 12:15:00
6:35 AM,12.9,7.7,80,29.80,10.0,West,8.1,-,N/A,,Overcast,280,2013-12-20 12:35:00
6:55 AM,13.6,8.6,80,29.79,10.0,West,5.8,-,N/A,,Overcast,280,2013-12-20 12:55:00
7:15 AM,14.0,8.8,80,29.77,10.0,WNW,6.9,-,N/A,,Overcast,290,2013-12-20 13:15:00
7:35 AM,13.8,8.6,80,29.77,10.0,WNW,5.8,-,N/A,,Mostly Cloudy,290,2013-12-20 13:35:00
7:55 AM,13.8,8.6,80,29.77,10.0,West,3.5,-,N/A,,Mostly Cloudy,280,2013-12-20 13:55:00
8:15 AM,12.6,7.9,82,29.77,10.0,West,4.6,-,N/A,,Scattered Clouds,280,2013-12-20 14:15:00
8:35 AM,12.6,8.1,82,29.76,10.0,West,5.8,-,N/A,,Clear,280,2013-12-20 14:35:00
8:55 AM,12.6,8.1,82,29.77,10.0,Calm,Calm,-,N/A,,Clear,0,2013-12-20 14:55:00
9:15 AM,12.9,8.6,83,29.76,10.0,West,3.5,-,N/A,,Scattered Clouds,270,2013-12-20 15:15:00
9:35 AM,15.1,10.2,81,29.74,10.0,West,3.5,-,N/A,,Scattered Clouds,270,2013-12-20 15:35:00
9:55 AM,15.8,10.9,81,29.75,10.0,West,6.9,-,N/A,,Clear,280,2013-12-20 15:55:00
10:15 AM,19.2,13.6,79,29.75,10.0,West,10.4,-,N/A,,Clear,260,2013-12-20 16:15:00
10:35 AM,19.4,13.8,79,29.76,10.0,WSW,9.2,-,N/A,,Scattered Clouds,240,2013-12-20 16:35:00
10:55 AM,19.9,14.9,81,29.76,10.0,WSW,10.4,-,N/A,,Overcast,250,2013-12-20 16:55:00
11:15 AM,20.3,15.3,81,29.75,10.0,West,12.7,-,N/A,,Scattered Clouds,270,2013-12-20 17:15:00
11:35 AM,21.2,16.0,80,29.74,10.0,West,10.4,-,N/A,,Scattered Clouds,260,2013-12-20 17:35:00
11:55 AM,23.0,17.2,79,29.73,10.0,WSW,12.7,-,N/A,,Scattered Clouds,240,2013-12-20 17:55:00
12:15 PM,23.9,17.4,76,29.72,10.0,SW,11.5,-,N/A,,Clear,230,2013-12-20 18:15:00
12:35 PM,25.7,18.1,73,29.70,10.0,WSW,8.1,-,N/A,,Scattered Clouds,250,2013-12-20 18:35:00
12:55 PM,26.4,18.7,73,29.69,10.0,SW,10.4,-,N/A,,Scattered Clouds,230,2013-12-20 18:55:00
1:15 PM,27.9,18.5,68,29.68,10.0,SW,10.4,-,N/A,,Scattered Clouds,220,2013-12-20 19:15:00
1:35 PM,28.9,18.1,64,29.68,10.0,SSW,10.4,-,N/A,,Scattered Clouds,210,2013-12-20 19:35:00
1:55 PM,29.7,17.6,61,29.66,10.0,SSW,9.2,-,N/A,,Mostly Cloudy,210,2013-12-20 19:55:00
2:15 PM,28.2,17.4,64,29.65,10.0,SSW,10.4,-,N/A,,Overcast,210,2013-12-20 20:15:00
2:35 PM,29.3,17.8,62,29.65,10.0,SW,8.1,-,N/A,,Overcast,220,2013-12-20 20:35:00
2:55 PM,31.6,17.8,57,29.64,10.0,WSW,6.9,-,N/A,,Overcast,250,2013-12-20 20:55:00
3:15 PM,32.0,17.4,55,29.64,10.0,WSW,4.6,-,N/A,,Overcast,240,2013-12-20 21:15:00
3:35 PM,30.7,17.1,57,29.64,10.0,WSW,5.8,-,N/A,,Scattered Clouds,240,2013-12-20 21:35:00
3:55 PM,31.6,17.6,56,29.64,10.0,West,5.8,-,N/A,,Mostly Cloudy,260,2013-12-20 21:55:00
4:15 PM,31.6,17.4,56,29.64,10.0,West,4.6,-,N/A,,Overcast,270,2013-12-20 22:15:00
4:35 PM,31.1,17.4,57,29.64,10.0,WNW,4.6,-,N/A,,Overcast,290,2013-12-20 22:35:00
4:55 PM,30.4,17.6,59,29.64,10.0,WNW,3.5,-,N/A,,Mostly Cloudy,300,2013-12-20 22:55:00
5:15 PM,28.4,17.4,63,29.64,10.0,NW,3.5,-,N/A,,Scattered Clouds,310,2013-12-20 23:15:00
5:35 PM,26.6,16.7,66,29.64,10.0,Calm,Calm,-,N/A,,Scattered Clouds,0,2013-12-20 23:35:00
5:55 PM,23.5,15.1,70,29.64,10.0,Calm,Calm,-,N/A,,Clear,0,2013-12-20 23:55:00
6:15 PM,21.7,13.6,71,29.64,10.0,Calm,Calm,-,N/A,,Clear,0,2013-12-21 00:15:00
6:35 PM,19.8,13.5,77,29.64,10.0,Calm,Calm,-,N/A,,Clear,0,2013-12-21 00:35:00
6:55 PM,20.5,14.7,78,29.64,10.0,Calm,Calm,-,N/A,,Clear,0,2013-12-21 00:55:00
7:15 PM,19.8,14.0,78,29.64,10.0,WNW,4.6,-,N/A,,Clear,300,2013-12-21 01:15:00
7:35 PM,18.9,13.5,79,29.64,10.0,Calm,Calm,-,N/A,,Clear,0,2013-12-21 01:35:00
7:55 PM,19.0,13.8,80,29.65,10.0,SW,5.8,-,N/A,,Clear,220,2013-12-21 01:55:00
8:15 PM,18.1,12.9,80,29.65,10.0,SSW,6.9,-,N/A,,Clear,210,2013-12-21 02:15:00
8:35 PM,17.6,13.1,83,29.65,10.0,SW,8.1,-,N/A,,Clear,230,2013-12-21 02:35:00
8:55 PM,17.2,13.1,84,29.65,10.0,SW,6.9,-,N/A,,Clear,230,2013-12-21 02:55:00
9:15 PM,17.4,13.3,84,29.65,10.0,SW,6.9,-,N/A,,Clear,230,2013-12-21 03:15:00
9:35 PM,17.1,13.1,84,29.65,10.0,SW,5.8,-,N/A,,Clear,230,2013-12-21 03:35:00
9:55 PM,17.6,13.6,84,29.65,7.0,WSW,8.1,-,N/A,,Clear,240,2013-12-21 03:55:00
10:15 PM,16.7,12.9,85,29.64,7.0,SW,8.1,-,N/A,,Clear,220,2013-12-21 04:15:00
10:35 PM,17.2,13.1,84,29.64,7.0,WSW,8.1,-,N/A,,Clear,240,2013-12-21 04:35:00
10:55 PM,16.9,13.1,85,29.65,7.0,SW,8.1,-,N/A,,Clear,230,2013-12-21 04:55:00
11:15 PM,17.1,13.1,84,29.64,7.0,WSW,10.4,-,N/A,,Clear,240,2013-12-21 05:15:00
11:35 PM,16.7,13.1,86,29.64,7.0,WSW,9.2,-,N/A,,Clear,240,2013-12-21 05:35:00
11:55 PM,16.7,13.1,86,29.63,7.0,SW,10.4,-,N/A,,Clear,230,2013-12-21 05:55:00